818  
ASUS45 KPSR 181110  
RWRAZ  
 
ARIZONA HOURLY REGIONAL WEATHER ROUNDUP  
NATIONAL WEATHER SERVICE PHOENIX AZ  
400 AM MST THU OCT 18 2018  
 
NOTE: FAIR INDICATES FEW OR NO CLOUDS BELOW 12,000 FEET WITH NO  
SIGNIFICANT WEATHER AND/OR S TO VISIBILITY
.  
 
AZZ001>003-036-181200-  
NORTHWEST ARIZONA  
 
CITY SKY/WX TMP DP RH WIND PRES REMARKS
 
KINGMAN CLEAR 44 37 76 E3 30.18S  

 
 
AZZ004>008-015-016-018-181200-  
NORTH CENTRAL ARIZONA  
 
CITY SKY/WX TMP DP RH WIND PRES REMARKS
 
GRAND CANYON CLEAR 28 27 96 CALM 30.27S  
WILLIAMS CLEAR 32 30 93 S7 30.23S WCI 26  
PRESCOTT CLEAR 38 35 89 SW3 30.20F  
FLAGSTAFF CLEAR 26 25 96 CALM 30.26S  
PAYSON MOCLDY 45 37 76 E5 30.21S  
PAGE CLOUDY 47 44 90 CALM 30.25S  

 
 
AZZ009>014-017-181200-  
NORTHEAST ARIZONA  
 
CITY SKY/WX TMP DP RH WIND PRES REMARKS
 
WINSLOW CLOUDY 45 42 89 CALM 30.25R  
SAINT JOHNS CLEAR 37 35 92 CALM 30.24S  
WINDOW ROCK CLOUDY 43 37 79 SE5 30.30S  
SHOW LOW CLOUDY 36 34 93 E5 30.27S WCI 32  

 
 
AZZ540-542>544-546-548-181200-  
GREATER PHOENIX AREA  
 
CITY SKY/WX TMP DP RH WIND PRES REMARKS
 
PHOENIX CLEAR 62 47 57 E7 30.04S  
BUCKEYE CLEAR 57 46 67 N7 30.05S  
LUKE AFB CLEAR 62 45 54 N7 30.04S  
DEER VALLEY CLEAR 63 43 48 NE8 30.07S  
SCOTTSDALE CLEAR 57 47 69 CALM 30.07S  
MESA-FALCON CLEAR 63 44 50 NE6 30.05F  
MESA-GATEWAY CLEAR 56 47 71 CALM 30.07S  

 
 
AZZ539-553-181200-  
SOUTHWEST MARICOPA COUNTY AND PINAL COUNTY  
 
CITY SKY/WX TMP DP RH WIND PRES REMARKS
 
CASA GRANDE CLEAR 61 46 57 E15 30.05S  
GILA BEND FAIR 60 47 61 E6 30.01S  

 
 
AZZ503-504-507>509-181200-  
SOUTHEAST ARIZONA  
 
CITY SKY/WX TMP DP RH WIND PRES REMARKS
 
TUCSON CLEAR 58 43 57 SE14 30.09S  
DAVIS-MONTHAN CLEAR 55 44 65 E7 30.07F  
NOGALES CLEAR 47 41 80 NE5 30.11S  
SIERRA VISTA CLEAR 43 41 93 E5 30.18S  
DOUGLAS CLEAR 49 43 80 CALM 30.17S  
SAFFORD CLOUDY 55 47 74 E8 30.20S  

 
 
AZZ532-181200-  
SOUTHWEST ARIZONA  
 
CITY SKY/WX TMP DP RH WIND PRES REMARKS
 
YUMA CLEAR 64 42 44 N8 30.00F  

 
 
CAZ041-043-047-048-061-525>527-560>570-181200-  
SOUTHERN CALIFORNIA  
 
CITY SKY/WX TMP DP RH WIND PRES REMARKS
 
DOWNTOWN L.A. CLEAR 60 40 47 CALM 30.03F  
L.A. AIRPORT CLEAR 62 42 47 SE3 30.03F  
SAN DIEGO CLEAR 63 40 42 CALM 30.03F  
BURBANK CLEAR 55 36 48 CALM 30.04F  
ONTARIO CLEAR 58 37 45 VRB5 30.05S  
RIVERSIDE CLEAR 56 39 53 NE6 30.06S  
PALM SPRINGS CLEAR 66 38 35 W6 30.07S  
EL CENTRO NAS CLEAR 60 32 34 SW6 30.03S  
IMPERIAL CLEAR 57 40 52 W3 30.01S  
BLYTHE CLEAR 61 45 55 SW3 30.04S  
NEEDLES CLEAR 64 36 35 W3 30.08R  

 
 
NVZ020-UTZ003-181200-  
SOUTHERN NEVADA-UTAH  
 
CITY SKY/WX TMP DP RH WIND PRES REMARKS
 
LAS VEGAS CLEAR 60 34 37 N3 30.16R  
SALT LAKE CITY CLOUDY 50 36 58 SE8 30.24S  

 
 
NMZ009-TXZ055-181200-  
NEW MEXICO-WEST TEXAS  
 
CITY SKY/WX TMP DP RH WIND PRES REMARKS
 
ALBUQUERQUE CLOUDY 46 37 71 E13G23 30.35S  
EL PASO LGT RAIN 50 45 83 E8 30.30S  

 
 
   
.......................KEY.....................
 
 
SKY/WX - SKY CONDITION/WEATHER  
TMP - TEMPERATURE IN FAHRENHEIT  
DP - DEW POINT IN FAHRENHEIT  
RH - RELATIVE HUMIDITY IN PERCENT  
WIND - DIRECTION AND SPEED IN MILES PER HOUR (MPH)  
VRB - VARIABLE WIND DIRECTION  
PRES - MEAN SEA LEVEL PRESSURE IN INCHES OF MERCURY  
F - FALLING PRESSURE R - RISING PRESSURE  
S - STEADY PRESSURE  
VSB - VISIBILITY IN MILES  
HX - HEAT INDEX IN FAHRENHEIT  
WCI - WIND CHILL INDEX IN FAHRENHEIT  
TC - TEMPERATURE IN CELSIUS WHICH IS ALSO KNOWN AS  
TEMPERATURE IN CENTIGRADE  
AFB - AIR FORCE BASE  
LUKE AFB IS LUKE AIR FORCE BASE  
DAVIS-MONTHAN IS DAVIS-MONTHAN AIR FORCE BASE  
NAS - NAVAL AIR STATION  
EL CENTRO NAS IS EL CENTRO NAVAL AIR STATION  
N/A - NOT AVAILABLE  
 
 
 
CLICK HERE TO GO TO PREVIOUS BULLETINS.

The Nexlab AZ Page Main Text Page